This demonstration page uses our WeatherBlox Daily Observations layout. Learn more.

Left ArrowRight Arrow

Hourly Observations for November 4, 2022

Temp ( °F °C ) Dew Point ( °F °C ) Humidity (%) Winds ( mph kmh ) Pressure ( in mb ) Visibility ( mi km ) Precip ( " mm )
12:53 am 00:53 Clear 64 17.8 61 16.1 90 90 SSE 9 15 29.69 1005 7 11 0.00 0.00
1:53 am 01:53 Clear with Mist and Fog 63 17.2 61 16.1 93 93 SSE 10 17 29.67 1005 6 10 0.00 0.00
2:53 am 02:53 Clear with Mist and Fog 61 16.1 60 15.6 97 97 S 7 11 29.67 1005 5 8 0.00 0.00
3:53 am 03:53 Clear 59 15 57 13.9 93 93 SSW 8 13 29.67 1005 8 13 0.00 0.00
4:53 am 04:53 Clear 57 13.9 45 7.2 64 64 W 9 15 29.68 1005 10 16 0.00 0.00
5:53 am 05:53 Clear 55 12.8 41 5 59 59 W 8 13 29.70 1006 10 16 0.00 0.00
6:53 am 06:53 Clear 52 11.1 40 4.4 63 63 W 6 9 29.74 1007 10 16 0.00 0.00
7:53 am 07:53 Clear 53 11.7 37 2.8 54 54 WNW 13 20 29.76 1008 10 16 0.00 0.00
8:53 am 08:53 Sunny 56 13.3 33 0.6 42 42 WNW 22 35 29.79 1009 10 16 0.00 0.00
9:53 am 09:53 Sunny 59 15 32 0 36 36 WNW 23 37 29.85 1011 10 16 0.00 0.00
10:53 am 10:53 Sunny 60 15.6 33 0.6 36 36 W 14 22 29.88 1012 10 16 0.00 0.00
11:53 am 11:53 Mostly Cloudy 61 16.1 21 -6.1 21 21 W 28 44 29.88 1012 10 16 0.00 0.00
12:53 pm 12:53 Partly Cloudy 62 16.7 17 -8.3 17 17 W 28 44 29.88 1012 10 16 0.00 0.00
1:53 pm 13:53 Sunny 63 17.2 14 -10 15 15 W 25 41 29.86 1011 10 16 0.00 0.00
2:53 pm 14:53 Sunny 63 17.2 14 -10 15 15 W 23 37 29.85 1011 10 16 0.00 0.00
3:53 pm 15:53 Sunny 64 17.8 14 -10 14 14 W 30 48 29.83 1010 10 16 0.00 0.00
4:53 pm 16:53 Sunny 64 17.8 14 -10 14 14 W 26 43 29.84 1010 10 16 0.00 0.00
5:53 pm 17:53 Sunny 63 17.2 12 -11.1 13 13 WNW 18 30 29.85 1011 10 16 0.00 0.00
6:53 pm 18:53 Sunny 60 15.6 15 -9.4 17 17 W 9 15 29.89 1012 10 16 0.00 0.00
7:53 pm 19:53 Clear 57 13.9 15 -9.4 19 19 W 13 20 29.91 1013 10 16 0.00 0.00
8:53 pm 20:53 Clear 56 13.3 16 -8.9 20 20 W 13 20 29.93 1013 10 16 0.00 0.00
9:53 pm 21:53 Clear 50 10 18 -7.8 28 28 W 8 13 29.94 1014 10 16 0.00 0.00
10:53 pm 22:53 Clear 50 10 18 -7.8 28 28 W 9 15 29.95 1014 10 16 0.00 0.00
11:53 pm 23:53 Clear 46 7.8 20 -6.7 35 35 W 7 11 29.95 1014 10 16 0.00 0.00

Powered by AerisWeather